Orbital Elements at Epoch 2459200.5 (2020-Dec-17.0) TDB
Reference: JPL 25 (heliocentric ecliptic J2000)
Element | Value | Uncertainty (1-sigma) | Units |
e | .1828136137302588 | 2.8526e-08 | |
a | 2.303158246843351 | 5.8689e-09 | au |
q | 1.882109564745271 | 6.5013e-08 | au |
i | 5.224830816428005 | 4.1995e-06 | deg |
node | 181.838400690983 | 3.3034e-05 | deg |
peri | 131.547610705482 | 3.5624e-05 | deg |
M | 162.7263104175849 | 1.2517e-05 | deg |
tp | 2458623.415550328084 (2019-May-19.91555033) | 4.374e-05 | TDB |
period | 1276.685997173812 3.50 | 4.8799e-06 1.336e-08 | d yr |
n | .2819800646336911 | 1.0778e-09 | deg/d |
Q | 2.724206928941431 | 6.9419e-09 | au |
|
| | Orbit Determination Parameters
Additional Information
|